Regional Weather Roundup
Issued by NWS Newport/Morehead, NC

Current Version | Previous Version | Text Only | Print | Product List | Glossary On
Versions: 1 2 3 4 5 6 7 8 9 10 11 12 13 14 15 16 17 18 19 20 21 22 23 24 25 26 27 28 29 30 31 32 33 34 35 36 37 38 39 40 41 42 43 44 45 46 47 48 49 50
000
ASUS42 KMHX 261113
RWRMHX
WEATHER ROUNDUP FOR EASTERN NORTH CAROLINA
NATIONAL WEATHER SERVICE NEWPORT/MOREHEAD CITY NC
700 AM EDT FRI AUG 26 2016

NOTE: "FAIR" INDICATES FEW OR NO CLOUDS BELOW 12,000 FEET
WITH NO SIGNIFICANT WEATHER AND/OR OBSTRUCTIONS TO VISIBILITY

NCZ015>017-031-032-045>047-102-103-261200-
NORTH COAST

CITY           SKY/WX    TMP DP  RH WIND       PRES   REMARKS
EDENTON        FAIR      77  69  75 SW5       30.10S
ELIZABETH CITY FAIR      73  70  90 S3        30.09R
KITTY HAWK     FAIR      75  73  93 SW3       30.10R
MANTEO         FAIR      76  72  87 W3        30.11R

$$

NCZ045>047-081-094-103-104-261200-
CENTRAL COAST

CITY           SKY/WX    TMP DP  RH WIND       PRES   REMARKS
FRISCO         FAIR      73  68  84 W5        30.11R

$$

NCZ095-097-098-100-101-261200-
SOUTHERN COAST

CITY           SKY/WX    TMP DP  RH WIND       PRES   REMARKS
BEAUFORT       CLOUDY    73  70  90 CALM      30.11R
CEDAR ISLAND   NOT AVBL
JACKSONVILLE   FAIR      70  68  93 CALM      30.11R
PINEY ISLAND   NOT AVBL
WILMINGTON     FAIR      70  68  93 NE3       30.11R


$$

NCZ011>013-027>030-043-044-078>080-089-090>093-098-261200-
COASTAL PLAIN

CITY           SKY/WX    TMP DP  RH WIND       PRES   REMARKS
AHOSKIE        FAIR      70  68  93 CALM      30.09R
CLINTON        FAIR      70  70 100 CALM      30.11S
ELIZABETHTOWN  FAIR      71  70  98 CALM      30.11R
GOLDSBORO      FAIR      72  72 100 S3        30.09R
GREENVILLE     MOCLDY    72  70  94 SW3       30.11S
HAVELOCK       FAIR      71  68  90 CALM      30.12R
KENANSVILLE    FAIR      68  66  94 CALM      30.12R
KINSTON        FAIR      70  68  94 CALM      30.12R
NEW BERN       MOCLDY    70  68  93 CALM      30.12R
RICHLANDS      MOCLDY    69  68  96 CALM      30.12R
ROCKY MOUNT    FAIR      71  71 100 S5        30.09S
WASHINGTON     FAIR      72  68  87 CALM      30.11R
WHITEVILLE     FAIR      70  68  94 CALM      30.11R

$$

AMZ130-135-150-152-154-156-158-170-250-252-270-ANZ085-086-088-633-658-670-261200-
MARINE OBSERVATIONS

STATION/POSITION TIME  TEMP    WIND        PRES    WAVE   SWELL
                       AIR SEA DIR/SP/G            HT/PER HT/PER
                 (UTC) (F)     (DEG/KT/KT) (MB)    (FT/S) (FT/S)
CHESAPEAKE LIGHT NOT AVBL
64 E VA BEACH    1050   80 80  230/ 12/ 14 1018.9    3/ 8   2/ 8
DUCK             1000   78 79  240/  9/ 12 1018.3
2 E DUCK         1011      78                N/A     2/ 9
OREGON INLET     1000   78 81  260/  5/  6 1018.7
13E OREGON INLT  1100      77                N/A     2/ 9   2/ 9
HATTERAS CG      1000   79 81  240/  3/  3 1018.6
DIAMOND BUOY     1050   81 84  250/  4/  6 1019.4    3/ 8   3/ 8
CAPE LOOKOUT     1100   79        CALM     1019.3
BEAUFORT LAB     1000   76 81   20/  2/  2 1018.3
30 SE NEW RVR IN 1008   81 84   10/  2/  4 1018.8
30 SE NEW RVR IN 1055      84                N/A     2/ 8
27 SE WRIGHTSVLE 1008   81 82   80/  2/  4 1018.9
5 SE WRIGHTSVLE  1008   80 83  330/  4/  6 1020.0
225 S CAPE HAT   1050   80 84   20/ 14/ 17 1016.8    4/ 7   2/ 7
41 SE CHARLESTON 1050   82 84   40/ 10/ 12 1018.0    3/ 7   2/ 7

$$




USA.gov is the U.S. government's official web portal to all federal, state and local government web resources and services.